Location: ??????
(38.3184°N, 23.6932°E)
Time: 02:48:32
(UTC+00:00)

Timation 1 Rocket - Pass Details

Date: 16 October 2021
Orbit: 898 x 908 km, 70.0° (Epoch: 04 December)

Event Time Altitude Azimuth Distance (km) Brightness Sun altitude
Rises 16:16:23 0° 335° (NNW) 3,542 7.7 -6.8°
Reaches altitude 10° 16:18:54 10° 335° (NNW) 2,596 7.0 -7.2°
Maximum altitude 16:24:55 84° 249° (WSW) 914 4.5 -8.4°
Drops below altitude 10° 16:30:53 10° 160° (SSE) 2,574 6.6 -9.6°
Sets 16:33:21 0° 160° (SSE) 3,509 7.2 -10.1°
